User: anonymous   Login
Location: Standeford and Andreas Observatories
(44.1397°N, 93.9969°W)
Time: 09:12:23
(UTC-06:00)
Language:

Cosmos 1500 Rocket - Orbit

View from above orbital plane
View from above orbital plane
View from above satellite
View from above satellite

Ground track
Ground track

The orbit data is extracted from the following two-line orbital elements,

1 14373U 83099B   16040.87685189  .00000325  00000-0  36359-4 0  9990
2 14373  82.5432 345.5235 0021630  56.9931 355.6485 14.83571622747739
Epoch (UTC): 09 February 2016 21:02:40
Eccentricity: 0.0021630
inclination: 82.5432°
perigee height: 603 km
apogee height: 633 km
right ascension of ascending node: 345.5235°
argument of perigee: 56.9931°
revolutions per day: 14.83571622
mean anomaly at epoch: 355.6485°
orbit number at epoch: 74773

The dashed part of the orbit path shows where the satellite is in the earth's shadow,  

DLR